Showing default

PLATERO, 58262

Orbit data source: Space-Track

PLATERO, 58262 is a Spanish payload satellite in SSO that was launched on Sat, 11 Nov 2023 UTC via an FALCON 9 launch vehicle from the Air Force Western Test Range (AFWTR). Payload-class satellites include a variety of spacecraft equipped with specific instruments for various scientific and technological missions. These include communications satellites like Starlink; space stations such as the ISS; scientific satellites like the Hubble; Earth observation satellites from companies like Planet Labs, Umbra, and HawkEye 360; GPS; miniature CubeSats for education and research; and military/defense satellites.

Not visible in the next 10 days
Identifier
58262, 2023-174G
Orbit
SSO
Country
Flag of ESES / SPN
Related business
Manufacturer
Open Cosmos
Mission
Operational Commercial Imaging/Com
Bus & Motor
CUBESAT 6U, Unknown motor
Mass
~10 kg wet, ~10 kg dry
Launch date (UTC)
2023-11-11 (2 years ago)
Launch vehicle
FALCON 9
Launch site
Air Force Western Test Range (AFWTR)
Object type
Payload
Rocket body
Debris
Shape & HBR
Box + 2 Pan, 0.3 m
Radar Cross Section
0.098 m², Medium (>0.1 m² and < 1m²)

Expand to show TLE details & history
Last TLE update: 20 hours ago

TLE from 20 hours ago
0 PLATERO
1 58262U 23174G   26126.20340523  .00028044  00000-0  33979-3 0  9998
2 58262  97.3920 222.4008 0003847 245.6046 114.4810 15.60616014139633
Epoch: 2026-05-06T04:52Z
TLE epoch observation values (Epoch: 2026-05-06T04:52:54.211Z)
Latitude
-0.00003°
Longitude
-74.89234°
Altitude
390.102 km
Speed
7.675 km/s
True Right ascension
14h 49m 36s
True Declination
0° 00' 00"
Sunlit
Object was in full shadow at epoch
Visualization orbit readout
Latitude
Unknown
Longitude
Unknown
Altitude
Unknown
Speed
Unknown
Apparent Right ascension
Unknown
Apparent Declination
Unknown
Sunlit
N/A
Visualization observer readout
Local Sidereal Time
08:27:06
Azimuth
Unknown
Elevation
Unknown
Doppler factor
Unknown
Orbital elements
Apogee altitude
385.389 km
Perigee altitude
380.187 km
Semi-major axis
6,760.925 km
Eccentricity
0.00038
Inclination
97.392°
RAAN
222.4008°
Arg. of periapsis
245.6046°
True anomaly
114.52111°
Mean anomaly
114.481°
Eccentric anomaly
114.50106°
Mean motion
3.90422 °/min
Orbital period
92.21 mins
BSTAR
0.00033979
Loading maneuver chart data...
Computing Atmospheric mass density...
Loading historical data...
Loading historical data...
Loading historical data...
Loading historical data...
Loading historical data...
Loading historical data...
Loading historical data...

Documentation

Showing up to 5 results
|